Mackall AAF, NC

3:24 AM EDT on March 29, 2017 (GMT -0400)
Mackall Army Air Field

Weather History for KHFF - April, 2014

Change the Weather History Date:

Wednesday, April 16, 2014

  Actual Average Record
Temperature  
Mean Temperature 44 °F -  
Max Temperature 55 °F 73 °F 89 °F (2002)
Min Temperature 34 °F 52 °F 30 °F (2008)
Degree Days  
Heating Degree Days 20    
Moisture  
Dew Point 26 °F    
Average Humidity 49    
Maximum Humidity 77    
Minimum Humidity 30    
Precipitation  
Precipitation 0.00 in - - ()
Sea Level Pressure  
Sea Level Pressure 30.33 in    
Wind  
Wind Speed 12 mph (NE)    
Max Wind Speed 18 mph    
Max Gust Speed 26 mph    
Visibility 12 miles    
Events      
Averages and records for this station are not official NWS values.
T = Trace of Precipitation, MM = Missing Value Source: NWS Daily Summary

Daily Weather History Graph

Daily Weather History Graph

Search for Another Location

Airport or City:

Trip Planner

Search our weather history database for the weather conditions in past years. The results will help you decide how hot, cold, wet, or windy it might be!

Date:

Astronomy

Apr. 16, 2014 Rise Set
Actual Time 6:44 AM EDT 7:51 PM EDT
Civil Twilight 6:18 AM EDT 8:17 PM EDT
Nautical Twilight 5:47 AM EDT 8:48 PM EDT
Astronomical Twilight 5:15 AM EDT 9:20 PM EDT
Moon 9:29 PM EDT (4/16) 7:33 AM EDT (4/16)
Length of Visible Light 13h 58m
Length of Day
13h 06m
Full, 98% of the Moon is Illuminated
Apr 16
Full
Apr 22
Last Quarter
Apr 29
New
May 6
First Quarter
May 14
Full

Hourly Weather History & Observations

Time (EDT) Temp. Windchill Dew Point Humidity Pressure Visibility Wind Dir Wind Speed Gust Speed Precip Events Conditions
12:56 AM 40.6 °F 33.0 °F 29.1 °F 64% 30.08 in 12.0 mi North 13.8 mph 25.3 mph N/A   Clear
1:56 AM 39.2 °F 31.2 °F 27.3 °F 62% 30.11 in 12.0 mi North 13.8 mph - N/A   Clear
2:56 AM 37.9 °F 30.5 °F 26.2 °F 63% 30.14 in 12.0 mi NNW 11.5 mph 18.4 mph N/A   Clear
3:56 AM 36.9 °F 29.1 °F 25.5 °F 64% 30.18 in 12.0 mi North 11.5 mph - N/A   Clear
4:56 AM 36.0 °F 29.0 °F 25.5 °F 66% 30.21 in 12.0 mi North 9.2 mph - N/A   Clear
5:56 AM 35.1 °F 27.9 °F 25.0 °F 67% 30.26 in 12.0 mi North 9.2 mph - N/A   Clear
6:56 AM 34.3 °F 28.4 °F 24.8 °F 68% 30.30 in 12.0 mi North 6.9 mph - N/A   Clear
7:56 AM 36.5 °F 29.2 °F 23.5 °F 59% 30.33 in 12.0 mi NNE 10.4 mph - N/A   Clear
8:56 AM 38.8 °F 29.4 °F 23.7 °F 55% 30.37 in 12.0 mi NNE 18.4 mph 26.5 mph N/A   Clear
9:56 AM 41.2 °F 33.0 °F 23.2 °F 49% 30.40 in 12.0 mi NNE 16.1 mph 24.2 mph N/A   Clear
10:56 AM 43.9 °F 37.2 °F 23.5 °F 45% 30.40 in 12.0 mi NE 13.8 mph 19.6 mph N/A   Clear
11:10 AM 44.6 °F 37.8 °F 21.2 °F 39% 30.39 in 12.0 mi NE 15.0 mph 21.9 mph N/A   Clear
11:38 AM 46.4 °F 40.1 °F 24.8 °F 43% 30.39 in 12.0 mi NNE 15.0 mph 21.9 mph N/A   Clear
11:56 AM 46.4 °F 39.8 °F 22.3 °F 39% 30.40 in 12.0 mi ENE 16.1 mph 21.9 mph N/A   Clear
12:56 PM 48.9 °F - 20.7 °F 33% 30.38 in 12.0 mi ENE 13.8 mph 19.6 mph N/A   Clear
1:46 PM 51.8 °F - 23.0 °F 33% 30.37 in 12.0 mi ENE 12.7 mph 19.6 mph N/A   Clear
1:56 PM 50.5 °F - 25.0 °F 37% 30.37 in 12.0 mi NE 12.7 mph 19.6 mph N/A   Clear
2:56 PM 52.9 °F - 25.2 °F 34% 30.36 in 12.0 mi NE 9.2 mph 19.6 mph N/A   Clear
3:56 PM 54.3 °F - 25.5 °F 33% 30.34 in 12.0 mi Variable 4.6 mph - N/A   Clear
4:56 PM 55.4 °F - 24.3 °F 30% 30.34 in 12.0 mi NE 9.2 mph 18.4 mph N/A   Clear
5:56 PM 55.4 °F - 24.4 °F 30% 30.35 in 12.0 mi ENE 10.4 mph - N/A   Clear
6:56 PM 54.5 °F - 24.8 °F 32% 30.36 in 12.0 mi East 8.1 mph - N/A   Clear
7:56 PM 51.1 °F - 27.5 °F 40% 30.38 in 12.0 mi ENE 5.8 mph - N/A   Clear
8:56 PM 48.2 °F - 30.2 °F 50% 30.40 in 12.0 mi ENE 5.8 mph - N/A   Clear
9:56 PM 45.7 °F 43.4 °F 32.0 °F 59% 30.42 in 12.0 mi East 4.6 mph - N/A   Clear
10:56 PM 43.5 °F 41.9 °F 32.2 °F 64% 30.43 in 12.0 mi ENE 3.5 mph - N/A   Clear
11:56 PM 41.0 °F 39.0 °F 34.3 °F 77% 30.44 in 12.0 mi NE 3.5 mph - N/A   Clear